613  
ASUS44 KMEG 210300  
RWRMEG  
MEMPHIS CWA HOURLY WEATHER ROUNDUP  
NATIONAL WEATHER SERVICE MEMPHIS TN  
1000 PM CDT SUN SEP 20 2020  
   
..WEST TENNESSEE
 
 
 
CITY SKY/WX TMP DP RH WIND PRES REMARKS
 
MEMPHIS INTL PTCLDY 72 57 59 E9 30.22R  
NWS MEMPHIS N/A 69 N/A N/A MISG N/A  
JACKSON PTCLDY 61 55 81 E3 30.25S  
DYERSBURG CLEAR 64 57 78 NE5 30.25F  
 
   
..EASTERN ARKANSAS
 
 
 
CITY SKY/WX TMP DP RH WIND PRES REMARKS
 
JONESBORO CLEAR 67 52 58 NE10 30.24R  
WEST MEMPHIS MOCLDY 68 60 75 E6 30.20S  
BATESVILLE CLEAR 67 55 65 NE7 30.24S  
NEWPORT MOCLDY 60 57 89 NE6 30.23S  
WALNUT RIDGE CLEAR 61 54 77 NE7 30.25R  
BLYTHEVILLE CLEAR 62 55 77 CALM 30.24S  
SEARCY PTCLDY 69 58 67 NE8 30.22R  
STUTTGART CLEAR 67 60 78 NE7 30.20R  
PINE BLUFF PTCLDY 68 58 70 NE8 30.18R  
MONTICELLO CLEAR 70 60 70 NE8 30.17R  
 
   
..NORTH MISSISSIPPI
 
 
 
CITY SKY/WX TMP DP RH WIND PRES REMARKS
 
TUPELO CLEAR 68 60 75 NE6 30.21R  
OXFORD CLEAR 63 59 88 NE7 30.22S  
OLIVE BRANCH N/A 68 61 77 NE5 30.21S  
TUNICA CLEAR 64 59 82 E5 30.21S  
CLARKSDALE N/A 68 61 77 CALM 30.20R  
GREENWOOD CLEAR 68 59 73 NE5 30.16R  
COLUMBUS CLEAR 68 53 58 E10 30.20R  
STARKVILLE CLEAR 68 55 64 E3 30.21R  
GOLDEN TRIANGL CLEAR 67 57 70 E6 30.21R  
 
   
..SOUTHEAST MISSOURI
 
 
 
CITY SKY/WX TMP DP RH WIND PRES REMARKS
 
KENNETT CLEAR 64 55 72 NE9 30.24S  
MALDEN CLEAR 61 54 77 NE5 30.27S  
WEST PLAINS CLEAR 60 50 69 E3 30.29R  
POPLAR BLUFF CLEAR 59 53 80 NE3 30.27R  
CAPE GIRARDEAU CLEAR 55 53 93 E5 30.28R  
 
   
..NORTHWEST ALABAMA
 
 
 
CITY SKY/WX TMP DP RH WIND PRES REMARKS
 
MUSCLE SHOALS CLEAR 67 57 70 E7 30.24R  
 
   
..MIDDLE TENNESSEE
 
 
 
CITY SKY/WX TMP DP RH WIND PRES REMARKS
 
NASHVILLE MOCLDY 67 55 65 E8 30.29R  
CLARKSVILLE CLEAR 61 55 81 NE6 30.29R  
 
   
..WESTERN KENTUCKY
 
 
 
CITY SKY/WX TMP DP RH WIND PRES REMARKS
 
PADUCAH CLEAR 58 53 84 CALM 30.28R  
FORT CAMPBELL CLEAR 60 57 88 NE7 30.29R  
 
   
..CENTRAL ARKANSAS
 
 
 
CITY SKY/WX TMP DP RH WIND PRES REMARKS
 
LITTLE ROCK CLEAR 68 60 75 NE9 30.20R  
 
SKY/WX REPORTED AS FAIR MEANS FEW OR NO CLOUDS BELOW  
12 THOUSAND FEET.  
 
 
 
CLICK HERE TO GO TO PREVIOUS BULLETINS.

The Nexlab TN Page
The Nexlab MS Page
The Nexlab AR Page Main Text Page